Location: Newark
(33.6333°S, 78.8500°W)
Time: 00:42:03
(UTC+00:00)

Transit 4A - All Passes

Search period start: 21 September 2019 00:00
Search period end: 01 October 2019 00:00
Orbit: 865 x 980 km, 66.8° (Epoch: 20 September)

Date Brightness Start Highest point End Pass type
(mag) Time Alt. Az. Time Alt. Az. Time Alt. Az.
21 Sep - 04:04:48 10° NNW 04:10:34 79° ENE 04:16:28 10° SSE night (unlit)
21 Sep - 05:54:20 10° W 05:57:35 15° SW 06:00:53 10° SSW visible
21 Sep - 13:11:29 10° SSW 13:17:20 42° ESE 13:23:17 10° NE daylight
21 Sep - 14:58:17 10° SW 15:03:26 28° WNW 15:08:39 10° NNW daylight
22 Sep - 02:31:28 10° NE 02:34:16 14° ENE 02:37:06 10° ESE night (unlit)
22 Sep - 04:14:09 10° NW 04:19:53 67° WSW 04:25:46 10° SSE night (unlit)
22 Sep - 11:39:00 10° SE 11:39:14 10° SE 11:39:28 10° SE daylight
22 Sep - 13:20:35 10° SSW 13:26:46 63° ESE 13:33:02 10° NE daylight
22 Sep - 15:08:37 10° WSW 15:12:33 17° WNW 15:16:30 10° NW daylight
23 Sep - 02:38:55 10° NNE 02:43:20 23° ENE 02:47:48 10° SE night (unlit)
23 Sep - 04:23:49 10° NW 04:29:18 43° WSW 04:34:54 10° SSE night (unlit)
23 Sep - 11:45:31 10° SSE 11:49:02 15° SE 11:52:34 10° E daylight
23 Sep - 13:29:51 10° SSW 13:36:07 86° WNW 13:42:28 10° NNE daylight
23 Sep - 15:21:26 10° W 15:21:36 10° W 15:21:45 10° WNW daylight
24 Sep - 02:47:13 10° N 02:52:27 37° ENE 02:57:46 10° SE night (unlit)
24 Sep - 04:33:50 10° WNW 04:38:48 29° SW 04:43:52 10° S visible
24 Sep - 11:53:57 10° S 11:58:42 22° SE 12:03:31 10° ENE daylight
24 Sep - 13:39:18 10° SW 13:45:23 57° WNW 13:51:35 10° N daylight
25 Sep - 02:56:00 10° N 03:01:39 59° ENE 03:07:25 10° SE night (unlit)
25 Sep - 04:44:18 10° W 04:48:24 19° SW 04:52:34 10° S visible
25 Sep - 12:02:44 10° S 12:08:17 33° ESE 12:13:54 10° ENE daylight
25 Sep - 13:48:58 10° SW 13:54:37 36° WNW 14:00:20 10° N daylight
26 Sep - 03:05:08 10° NNW 03:10:56 88° WSW 03:16:51 10° SSE night (unlit)
26 Sep - 04:55:30 10° WSW 04:58:07 13° SW 05:00:45 10° SSW visible
26 Sep - 12:11:45 10° SSW 12:17:46 49° ESE 12:23:52 10° NE daylight
26 Sep - 13:58:57 10° SW 14:03:45 23° WNW 14:08:37 10° NNW daylight
27 Sep - 01:31:00 10° NE 01:34:32 17° ENE 01:38:07 10° ESE night (unlit)
27 Sep - 03:14:36 10° NW 03:20:16 57° WSW 03:26:06 10° SSE night (unlit)
27 Sep - 10:37:36 10° SSE 10:39:49 12° SE 10:42:02 10° ESE visible
27 Sep - 12:20:56 10° SSW 12:27:10 74° ESE 12:33:31 10° NNE daylight
27 Sep - 14:09:37 10° WSW 14:12:50 15° WNW 14:16:05 10° NW daylight
28 Sep - 01:38:51 10° NNE 01:43:37 27° ENE 01:48:27 10° SE night (unlit)
28 Sep - 03:24:23 10° NW 03:29:43 37° WSW 03:35:10 10° S visible
28 Sep - 10:45:29 10° S 10:49:34 18° SE 10:53:40 10° E daylight
28 Sep - 12:30:15 10° SSW 12:36:30 75° WNW 12:42:50 10° NNE daylight
29 Sep - 01:47:21 10° N 01:52:46 43° ENE 01:58:18 10° SE night (unlit)
29 Sep - 03:34:33 10° WNW 03:39:16 25° SW 03:44:03 10° S visible
29 Sep - 10:54:05 10° S 10:59:12 26° SE 11:04:21 10° ENE daylight
29 Sep - 12:39:46 10° SW 12:45:45 48° WNW 12:51:49 10° N daylight
30 Sep - 01:56:15 10° NNW 02:02:00 70° ENE 02:07:52 10° SSE night (unlit)
30 Sep - 03:45:14 10° W 03:48:54 17° SW 03:52:38 10° S visible
30 Sep - 11:02:58 10° S 11:08:45 38° ESE 11:14:34 10° NE daylight
30 Sep - 12:49:32 10° SW 12:54:56 31° WNW 13:00:25 10° NNW daylight
